This is the latest recevied weather packets stored in our database for station/object KD2SIG. If no packets are shown the sender has not sent any weather packets the latest 10 day(s).
| Time | Temp. | Humidity | Pressure | Rain* | Wind** | Luminosity | Snow |
|---|---|---|---|---|---|---|---|
| 1777924182 | 21.11° C | 48% | 1004.7 hPa | 0 mm | - | 541 W/m² | - |
| 1777923878 | 21.11° C | 48% | 1004.7 hPa | 0 mm | - | 565 W/m² | - |
| 1777923574 | 21.11° C | 50% | 1004.9 hPa | 0 mm | - | 424 W/m² | - |
| 1777923272 | 20.56° C | 49% | 1005.2 hPa | 0 mm | - | 584 W/m² | - |
| 1777922971 | 20.56° C | 49% | 1005 hPa | 0 mm | - | 615 W/m² | - |
| 1777922667 | 21.11° C | 50% | 1005.1 hPa | 0 mm | - | 626 W/m² | - |
| 1777922366 | 20.56° C | 51% | 1005.2 hPa | 0 mm | - | 605 W/m² | - |
| 1777922064 | 20° C | 50% | 1005.2 hPa | 0 mm | - | 615 W/m² | - |
| 1777921759 | 20.56° C | 49% | 1005.4 hPa | 0 mm | - | 608 W/m² | - |
| 1777921455 | 20° C | 52% | 1005.3 hPa | 0 mm | - | 605 W/m² | - |
| 1777921152 | 20° C | 51% | 1005.2 hPa | 0 mm | - | 537 W/m² | - |
| 1777920849 | 20° C | 49% | 1005.2 hPa | 0 mm | - | 666 W/m² | - |
| 1777920545 | 20° C | 50% | 1005.3 hPa | 0 mm | - | 648 W/m² | - |
| 1777920241 | 20° C | 50% | 1005.4 hPa | 0 mm | - | 631 W/m² | - |
| 1777919937 | 20° C | 52% | 1005.3 hPa | 0 mm | - | 655 W/m² | - |
| 1777919634 | 20° C | 51% | 1005.4 hPa | 0 mm | - | 615 W/m² | - |
| 1777919332 | 20° C | 50% | 1005.5 hPa | 0 mm | - | 603 W/m² | - |
| 1777919029 | 19.44° C | 52% | 1005.4 hPa | 0 mm | - | 675 W/m² | - |
| 1777918725 | 18.89° C | 52% | 1005.4 hPa | 0 mm | - | 714 W/m² | - |
| 1777918423 | 19.44° C | 51% | 1005.7 hPa | 0 mm | - | 665 W/m² | - |
| 1777918122 | 19.44° C | 52% | 1005.7 hPa | 0 mm | - | 733 W/m² | - |
| 1777917820 | 20° C | 52% | 1005.8 hPa | 0 mm | - | 727 W/m² | - |
| 1777917518 | 19.44° C | 52% | 1005.7 hPa | 0 mm | - | 707 W/m² | - |
| 1777917214 | 18.89° C | 51% | 1005.9 hPa | 0 mm | - | 659 W/m² | - |
| 1777916913 | 18.89° C | 53% | 1006 hPa | 0 mm | - | 711 W/m² | - |
* Rain latest hour (hover to see other rain measurements)
** Current wind speed in m/s (hover to see current wind gust speed)